www.pogodaiklimat.ru

Погода и климат >> Архив погоды >> Россия >> Приморский край >> Рудная Пристань


АРХИВ ПОГОДЫ в Рудной Пристани

Время (UTC), дата Ветер
(напр.,м/с)
 
Видим.   Явления Облачность Т
(С)
Тd
(С)
f
(%)
Тe
(С)
Тes
(С)
Комфортность P
(гПа)
Po
(гПа)
Тmin
(С)
Tmax
(С)
R
(мм)
R24
(мм)
S
(см)
06 9.01 З 6-11
{16}
20 км 3/3 600 м
[Sc]
-2.0 -28.3 11 -8 -7 1013.0 1008.7
09 9.01 З 3
{13}
20 км ясно -4.8 -28.2 14 -9 -9 1013.9 1009.5 -1.4
12 9.01 З 3 20 км ясно -4.2 -27.4 14 -8 -8 1013.5 1009.1
15 9.01 З 2 20 км ясно -4.3 -26.1 16 -7 -7 1013.6 1009.3
18 9.01 штиль 0 20 км ясно -5.9 -24.2 22 -6 -6 1013.9 1009.5
21 9.01 С 1 20 км ясно -6.9 -23.5 25 -8 -8 1012.5 1008.1 -7.3
00 10.01 З 1 20 км 3/0
[Ci fib]
-3.7 -22.6 21 -5 -4 1012.1 1007.8
03 10.01 З 4 20 км 3/0
[Ci fib]
+1.2 -22.4 15 -3 -0 1008.4 1004.2
06 10.01 З 5
{12}
20 км 3/0
[Ci fib]
+0.3 -20.9 19 -4 -4 1008.3 1004.0
09 10.01 З 3
{11}
20 км 1/0
[Ac lent]
-3.3 -19.7 27 -7 -7 1012.2 1007.9 +1.9
12 10.01 ЮЗ 1
{10}
20 км ясно -6.2 -22.0 27 -8 -8 1015.3 1010.9
15 10.01 Ю 2
{16}
20 км ясно -7.5 -22.0 30 -11 -11 1016.7 1012.3
18 10.01 З 7-15
{15}
20 км ясно -7.2 -24.4 24 -15 -15 1018.5 1014.0
21 10.01 ЮЗ 3
{15}
20 км ясно -8.0 -24.8 25 -13 -13 1020.0 1015.6 -8.0
00 11.01 З 4 50 км ясно -7.3 -25.7 21 -13 -12 1021.8 1017.4 -10.3
03 11.01 З 3-12
{12}
50 км ясно -3.4 -28.8 12 -7 -4 1020.7 1016.3
06 11.01 З 3-10
{14}
20 км ясно -2.8 -28.2 12 -7 -6 1021.0 1016.6
09 11.01 З 4
{12}
20 км ясно -5.4 -26.6 17 -11 -11 1022.3 1017.9 -2.5
12 11.01 З 4
{13}
20 км ясно -6.8 -24.2 24 -13 -13 1022.6 1018.2
15 11.01 Ю 2
{15}
20 км ясно -7.0 -23.3 26 -11 -11 1022.6 1018.2
18 11.01 З 2 20 км ясно -6.4 -23.2 25 -10 -10 1023.0 1018.6
21 11.01 СЗ 2 20 км ясно -6.8 -22.4 28 -10 -10 1023.0 1018.6 -7.0
00 12.01 З 3 20 км ясно -5.2 -21.3 27 -10 -9 1024.3 1019.9 -9.0
03 12.01 З 3 20 км ясно -0.3 -20.6 20 -4 -1 1023.4 1019.1
06 12.01 В 2 20 км ясно -1.1 -15.0 34 -4 -3 1022.9 1018.6
09 12.01 штиль 0 20 км ясно -4.3 -13.1 50 -5 -5 1024.5 1020.1 +0.7
12 12.01 З 1 20 км ясно -10.4 -15.0 69 -13 -13 1025.6 1021.1
15 12.01 З 2 20 км ясно -12.5 -16.5 72 -17 -17 1025.3 1020.8
18 12.01 ЮЗ 2 20 км ясно -13.7 -17.2 75 -18 -18 1025.7 1021.1
21 12.01 ЮЗ 3 20 км ясно -14.9 -18.0 77 -21 -21 1025.8 1021.2 -15.2
00 13.01 З 3 50 км ясно -12.7 -16.8 71 -19 -18 1026.3 1021.7
03 13.01 ЮЗ 2 50 км ясно -1.6 -16.5 31 -4 -1 1024.7 1020.3
06 13.01 ЮВ 2 20 км ясно -1.5 -8.3 60 -5 -4 1024.3 1019.9
09 13.01 штиль 0 20 км ясно -4.1 -8.1 74 -5 -5 1024.8 1020.4 -1.1
12 13.01 З 2 20 км 3/0
[Ci fib]
-9.7 -11.5 87 -14 -14 1025.1 1020.6
15 13.01 З 2 20 км 3/0
[Ci fib]
-12.7 -15.0 83 -17 -17 1024.8 1020.3
18 13.01 З 3 20 км ясно -13.9 -16.3 82 -20 -20 1025.2 1020.6
21 13.01 З 3 20 км ясно -14.4 -17.2 79 -21 -21 1024.4 1019.8 -14.5
00 14.01 ЮЗ 2 20 км 10/3 600 м
[Sc Ci sp]
-11.3 -15.3 72 -16 -15 1024.6 1020.1 -14.7
03 14.01 ЮЗ 2 20 км 10/0
[Ci]
-1.9 -12.8 43 -5 -2 1022.6 1018.2
06 14.01 СВ 3 20 км 10/0
[Ci sp]
-0.5 -8.4 55 -5 -4 1021.4 1017.1
09 14.01 СВ 1 20 км 8/3 600 м
[Sc Ci sp]
-3.0 -12.7 47 -5 -5 1021.1 1016.7 -0.3
12 14.01 З 2 20 км 8/3 600 м
[Sc Ci sp]
-6.1 -10.3 72 -10 -10 1020.7 1016.3
15 14.01 З 3 20 км 8/0
[Ac lent Ci sp]
-8.0 -13.3 66 -14 -14 1019.9 1015.5
18 14.01 Ю 1 20 км 9/3 600 м
[Sc Ac lent Ci sp]
-5.9 -14.1 52 -8 -8 1018.3 1013.9
21 14.01 Ю 1 20 км 10/6 600 м
[Cb cap As op]
-4.6 -13.9 48 -6 -6 1016.1 1011.7 -8.6
00 15.01 СЗ 1 4000 м слаб. ливневой снег 10/8 300 м
[Cb cap As op]
-4.2 -13.7 48 -6 -6 1013.8 1009.4
03 15.01 З 1 20 км {ливн. осадки} 10/8 600 м
[Cb cap As trans]
-3.3 -13.9 44 -5 -4 1009.6 1005.3
06 15.01 ЮЗ 2 20 км {ливн. осадки} 10/8 600 м
[Cb cap As trans]
-2.0 -13.7 40 -5 -5 1006.6 1002.3
09 15.01 ЮЗ 5-13
{14}
20 км 10/8 600 м
[Cb cap Ac trans Ci sp]
-5.0 -17.9 36 -11 -11 1007.3 1003.0 -1.8 0.0
12 15.01 ЮЗ 5-13
{14}
20 км 10/8 600 м
[Cb cap Ac trans Ci sp]
-5.0 -17.9 36 -11 -11 1007.3 1003.0 -1.8 0.0
15 15.01 З 4-10
{14}
20 км 8/4 600 м
[Cb cap Ac trans Ci sp]
-7.8 -20.6 35 -14 -14 1009.4 1005.0
18 15.01 ЮЗ 3
{15}
20 км ясно -12.1 -27.1 27 -18 -18 1011.7 1007.2
21 15.01 Ю 2
{13}
20 км ясно -14.2 -29.6 26 -19 -19 1014.0 1009.5 -14.2
00 16.01 З 2 20 км 3/3 600 м
[Sc Ac trans]
-14.1 -27.0 33 -19 -18 1015.5 1011.0 -15.1

 

Местоположение метеостанции Рудная Пристань (Приморский край, Россия): широта 44.37 долгота 135.80 высота над уровнем моря 34 м.

В архиве по умолчанию представлена погода в Рудной Пристани за последнюю неделю. Архивные данные за месяц целиком и за предыдущие месяцы, начиная с января 2011 года, Вы можете получить, выбрав интересующий диапазон дат из раскрывающегося списка и нажав кнопку "Ввод!".


*Определитесь, кто Вы:
робот инопланетянин человек

Внимание! Время в таблицах - всемирное. Для получения местного времени необходимо прибавить поправку, которая равна 10 ч.

Смотрите также архив погоды в соседних городах и на ближайших метеорологических станциях:

Погода в Богополе (Приморский край, Россия) (35 км)
Погода в Кавалерово (Приморский край, Россия) (65 км)
Погода в Ольге (Приморский край, Россия) (80 км)
Погода в Дальнегорске (Приморский край, Россия) (93 км)
Погода в Тернее (Приморский край, Россия) (94 км)
Погода в Мельничном (Приморский край, Россия) (122 км)
Погода в Лучегорске (Приморский край, Россия) (151 км)
Погода в Малой Кеме (Приморский край, Россия) (154 км)
Погода в Чугуевке (Приморский край, Россия) (161 км)
Погода в Малиново (Приморский край, Россия) (172 км)

Пояснения к столбцам:

Ветер - указаны скорость ветра в м/с - средняя за 10 мин, порывы в срок и между сроками (в фигурных скобках) и направление, откуда дует ветер: С - северный, СВ - северо-восточный, В - восточный, ЮВ - юго-восточный, Ю - южный, ЮЗ - юго-западный, З - западный, СЗ - северо-западный.
Видимость - горизонтальная дальность видимости в метрах или километрах. При видимости от 1 до 10 км при отсутствии осадков обычно наблюдается дымка, при ухудшении видимости до 1 км и менее - туман. В сухую погоду видимость может ухудшаться дымом, пылью или мглою.
Явления - указаны атмосферные явления, наблюдавшиеся в срок или в последний час перед сроком; фигурными скобками обозначены явления, наблюдавшиеся между сроками (за 1-3 часа до срока); квадратными скобками обозначены град или гололедные отложения с указанием их диаметра в мм.
Облачность - указаны через наклонную черту общая и нижняя облачность в баллах и высота нижней границы облаков в метрах; квадратными скобками обозначены формы облаков: Ci - перистые, Cs - перисто-слоистые, Cc - перисто-кучевые, Ac - высококучевые, As - высокослоистые, Sc - слоисто-кучевые, Ns - слоисто-дождевые, Cu - кучевые, Cb - кучево-дождевые. Подробнее классификацию облаков см. в Атласе облаков (PDF).
T - Температура воздуха - температура, измеренная на высоте 2 м над землей.
Td - Температура точки росы - температура, при понижении до которой содержащийся в воздухе водяной пар достигнет насыщения.
f - Относительная влажность воздуха - влажноcть воздуха, измеренная на высоте 2 м над землей.
Te - Эффективная температура - температура, которую ощущает одетый по сезону человек в тени. Характеристика душности погоды. При расчете учитывается влияние влажности воздуха и скорости ветра на теплоощущения человека.
Tes - Эффективная температура на солнце - температура, которую ощущает человек, с поправкой на солнечный нагрев. Характеристика знойности погоды. Зависит от высоты солнца над горизонтом, облачности и скорости ветра. Ночью, в пасмурную погоду, а также при ветре 12 м/с и более поправка равна нулю.
P - Атмосферное давление - приведенное к уровню моря атмосферное давление.
Po - Атмосферное давление - измеренное на уровне метеостанции атмосферное давление.
Tmin - Минимальная температура - минимум температуры воздуха на высоте 2 м над землей.
Tmax - Максимальная температура - максимум температуры воздуха на высоте 2 м над землей.
R - Количество осадков - Количество выпавших осадков за период времени, мм. При наведении курсора мыши на число - период времени, за который выпало указанное количество осадков.
R24 - Количество осадков - Количество выпавших осадков за 24 часа, мм.
S - Снежный покров - Высота снежного покрова, см. При наведении курсора мыши на число - состояние снежного покрова и степень покрытия местности в баллах.